Temperature
17 17 17 17 17 17 17 16 16 16 16 16 16 16 16 16 15 15 15 15 15 15 15 15 15 15 15 14 14 14 14 14 14 14 13 13 13 13 13 13 13 13 13
17 17 17 17 17 17 17 17 16 16 16 16 16 16 16 15 15 15 15 15 15 15 15 14 14 14 14 14 14 14 14 14 14 14 13 13 13 13 13 13 13 13 13
17 17 17 17 17 17 17 17 16 16 16 16 16 16 15 15 15 15 15 15 15 15 14 14 14 14 14 14 14 14 14 14 14 13 13 13 13 12 12 12 12 13 13
17 17 17 17 17 17 17 17 17 16 16 16 16 16 15 15 15 15 15 15 15 14 14 14 14 14 14 14 14 14 14 14 14 13 13 13 13 13 12 12 12 12 12
18 18 17 17 17 17 17 17 17 16 16 16 16 15 15 15 15 15 15 15 15 14 14 14 14 14 14 14 14 14 13 13 13 13 13 13 13 13 12 12 12 12 12
18 18 17 17 17 17 17 17 17 16 16 16 16 15 15 15 15 15 15 15 15 14 14 14 14 14 14 14 14 13 13 13 13 13 13 13 13 13 13 12 12 12 12
18 17 17 17 17 17 17 17 17 16 16 16 16 15 15 15 15 15 15 15 15 14 14 14 14 14 14 14 13 13 13 13 13 13 13 13 13 13 13 13 12 12 11
17 17 17 17 17 17 17 17 17 16 16 16 16 15 15 15 15 15 15 15 15 14 14 14 14 14 14 13 13 13 13 13 13 13 13 13 13 13 13 13 12 12 12
17 17 17 17 17 17 17 17 16 16 16 16 16 15 15 15 15 15 15 14 14 14 14 14 14 14 13 14 13 13 13 13 13 13 13 13 13 13 13 12 12 12 12
17 17 17 17 17 17 17 16 16 16 16 16 16 15 15 15 15 15 15 14 14 14 14 14 14 14 14 13 13 13 13 13 13 13 13 13 13 13 12 12 12 12 12
17 17 17 17 17 17 17 16 16 16 16 15 15 15 15 15 15 15 15 14 14 14 14 14 14 14 13 13 13 13 13 13 13 13 13 13 12 12 12 12 12 12 12
17 17 17 17 17 17 16 16 16 16 16 15 15 15 15 15 15 15 15 14 14 14 14 14 14 13 13 13 13 13 13 13 13 13 13 13 12 12 12 12 12 12 12
17 17 17 16 17 16 16 16 16 16 15 15 15 15 15 15 15 14 14 14 14 14 14 14 14 13 13 13 13 13 13 13 12 12 12 12 12 12 12 12 12 12 12
16 16 16 16 16 16 16 16 15 15 15 15 15 15 15 14 14 14 14 14 14 14 14 14 14 13 13 13 13 13 13 12 12 12 12 12 12 12 12 12 12 12 11
16 16 16 16 16 16 15 15 15 15 15 14 14 14 14 14 14 14 14 14 14 14 14 14 13 13 13 13 13 12 12 12 12 12 12 12 12 12 12 12 12 11 11
16 16 16 15 15 15 15 15 15 15 14 14 14 14 14 14 14 14 14 13 13 13 13 13 13 13 13 13 12 12 12 12 12 12 12 12 12 12 12 11 11 11 11
16 16 15 15 15 15 15 15 15 15 14 14 14 14 14 13 13 13 13 13 13 13 13 13 13 13 13 12 12 12 12 12 12 12 12 12 12 11 11 11 11 11 11
15 15 15 15 15 15 15 15 14 14 14 14 14 14 13 13 13 13 13 13 13 13 13 13 13 12 12 12 12 12 12 12 12 12 11 11 11 11 11 11 11 11 11
15 15 15 15 15 15 14 14 14 14 14 14 14 13 13 13 13 12 12 12 12 12 12 12 12 12 12 12 12 12 11 11 11 11 11 11 11 11 11 11 11 11 10
15 15 15 14 14 14 14 14 14 14 14 14 13 13 13 13 12 12 12 12 12 12 12 12 12 12 12 12 11 11 11 11 11 11 11 11 11 10 10 10 10 10 10
14 14 14 14 14 14 14 14 13 13 13 13 13 13 13 12 12 12 12 12 12 12 12 12 12 12 12 11 11 11 11 11 11 11 11 10 10 10 10 10 10 10 10
14 14 14 14 14 13 13 13 13 13 13 13 13 13 12 12 12 12 11 11 11 11 11 11 11 11 11 11 11 11 11 11 10 10 10 10 10 10 10 10 10 9 9
13 13 13 13 13 13 13 13 13 13 13 12 12 12 12 12 11 11 11 11 11 11 11 11 11 11 11 11 11 11 11 10 10 10 10 10 10 9 9 9 9 9 9
13 13 13 12 12 12 12 12 12 12 12 12 12 12 12 12 11 11 11 11 11 10 10 10 11 11 11 11 10 10 10 10 10 10 10 9 9 9 9 9 9 9 8
12 12 12 12 12 12 12 12 12 12 12 11 11 11 11 11 11 11 11 11 10 10 10 10 10 11 11 11 10 10 10 10 10 9 9 9 9 9 9 9 8 8 8
12 12 12 11 11 11 11 11 11 11 11 11 11 11 11 11 11 10 10 10 10 10 10 10 10 10 10 10 10 10 10 10 9 9 9 9 9 9 9 8 8 8 8
Wind_Speed
4 2 3 4 4 3 3 3 4 3 3 3 2 2 1 1 2 2 3 3 4 5 6 5 4 4 4 4 4 4 5 3 3 4 4 5 5 6 5 6 7 8 10
3 3 3 4 4 4 4 3 4 4 3 3 2 2 2 1 1 2 2 2 3 4 5 5 4 4 4 4 4 4 3 2 2 2 2 2 3 4 5 4 5 6 8
7 5 4 4 5 5 5 5 5 4 4 3 3 3 3 3 2 1 1 1 2 3 4 5 5 4 4 4 4 4 4 2 0 1 3 2 1 1 3 4 4 5 5
7 6 6 5 6 6 5 5 5 4 4 4 4 4 3 2 2 1 0 1 2 2 4 5 5 4 3 4 3 3 2 3 2 1 2 2 3 2 1 2 3 4 4
8 8 7 7 6 6 5 5 5 4 4 5 5 5 3 2 1 1 1 1 1 1 3 4 4 4 3 3 3 3 2 2 3 2 1 2 2 2 2 0 2 3 3
7 6 5 5 4 4 5 5 5 4 4 5 5 5 5 4 3 2 1 0 0 0 1 3 3 3 3 3 3 3 2 2 2 2 2 2 2 2 2 2 1 1 2
7 6 6 6 5 5 5 5 6 5 4 5 5 5 5 5 5 4 4 2 1 1 2 2 3 2 3 3 3 3 2 2 2 2 2 2 2 2 3 3 2 1 1
6 7 7 7 7 6 6 6 6 5 5 5 5 4 4 4 4 4 4 4 3 3 3 3 3 3 3 3 3 2 2 2 2 2 2 2 2 3 3 4 4 2 1
5 6 6 6 6 6 6 6 6 5 5 5 4 4 4 5 5 4 3 3 3 2 3 3 3 2 3 3 3 2 2 2 2 2 2 2 1 2 2 3 4 4 2
4 4 4 5 5 5 5 4 5 5 5 5 4 4 4 4 4 3 4 4 3 3 4 4 3 3 3 3 3 2 2 2 1 1 2 2 1 2 2 3 2 2 3
3 3 3 3 3 3 3 4 4 3 3 3 4 4 3 3 3 4 4 4 4 4 5 5 4 4 3 3 3 3 3 3 2 2 2 2 2 2 2 2 2 2 2
2 2 2 3 3 3 3 3 3 3 3 3 3 3 3 2 3 4 4 4 4 4 5 5 4 4 4 3 4 4 3 4 3 3 3 2 2 2 2 2 2 2 2
2 2 2 2 3 3 3 3 2 2 2 2 2 2 2 3 3 3 3 3 4 4 4 5 5 5 4 4 4 4 4 4 4 4 4 4 4 3 2 3 3 2 2
2 2 2 2 2 3 3 3 2 2 2 2 2 2 3 3 3 2 2 3 3 4 4 5 5 5 5 5 4 4 4 4 3 4 4 4 5 5 5 4 4 4 3
2 3 3 3 3 3 3 3 2 2 2 2 2 3 3 2 2 2 2 2 3 3 3 4 4 4 4 4 5 4 4 4 3 3 3 4 5 6 5 4 5 6 4
4 4 4 4 4 4 4 3 3 3 2 3 3 3 2 2 2 2 2 2 2 2 2 3 4 4 4 6 7 6 4 4 4 3 3 3 4 5 6 6 8 8 6
5 5 5 5 5 5 5 5 4 3 3 3 2 2 2 3 3 2 2 2 2 2 3 3 4 4 5 6 7 8 5 4 4 4 3 3 3 3 3 4 6 6 7
5 5 5 5 5 4 4 4 3 3 3 3 2 2 2 3 3 2 2 2 2 2 3 3 4 4 5 6 7 8 4 4 3 4 4 4 3 3 4 4 3 3 4
5 5 5 4 4 4 4 4 3 3 3 4 4 3 3 3 3 3 3 2 2 2 2 3 4 4 4 6 7 7 4 3 3 3 3 4 4 5 5 5 4 2 2
3 3 3 2 3 4 4 4 4 4 5 5 4 4 4 4 4 5 4 2 2 3 2 2 3 4 4 5 7 8 4 4 3 2 3 5 5 6 6 6 6 5 4
2 2 2 3 4 4 4 5 5 6 5 3 3 3 3 4 4 4 3 3 2 2 2 2 2 3 4 5 7 8 5 5 4 3 3 4 6 7 7 6 6 7 4
1 1 2 3 3 3 5 5 6 6 3 3 3 4 3 3 3 4 3 3 3 3 2 1 1 2 3 4 5 8 7 6 5 4 4 4 6 7 7 6 6 6 5
2 2 2 2 2 3 4 5 5 3 3 3 4 3 3 3 3 4 4 3 3 3 2 2 3 3 2 3 5 6 7 7 5 4 5 5 5 5 4 6 7 5 4
3 2 2 3 3 3 4 5 4 3 4 4 4 3 3 3 3 3 4 4 4 4 3 3 4 3 3 3 3 3 4 5 4 3 3 3 4 3 3 3 3 3 4
3 3 3 4 5 4 4 4 4 4 4 4 4 3 4 4 4 3 3 5 5 6 5 5 5 4 5 6 6 5 4 4 4 3 2 1 2 2 2 2 2 2 3
3 3 3 4 5 5 5 4 4 5 5 4 4 4 3 3 3 3 2 3 4 5 6 6 5 5 6 5 5 6 6 6 6 4 3 4 4 5 5 4 4 3 4
Wind_Direction
235 204 189 167 150 146 141 146 137 139 128 115 116 107 87 50 45 56 82 100 114 122 121 117 115 115 111 114 110 101 91 79 85 80 59 42 43 48 39 38 41 40 38
217 204 190 169 166 167 166 165 163 164 161 150 141 131 125 99 59 36 55 88 113 126 132 130 133 128 118 114 115 109 104 102 82 99 92 47 18 23 31 32 40 34 34
206 203 192 187 179 179 183 184 180 175 171 148 109 84 65 51 39 28 8 16 99 126 135 140 138 141 142 148 149 140 130 143 85 79 127 132 185 353 8 25 30 27 28
204 198 195 193 196 198 187 182 179 175 167 153 146 146 153 165 211 198 204 22 83 118 134 141 141 147 149 155 168 155 143 140 146 74 61 113 143 144 42 359 11 21 25
201 198 197 199 201 194 184 181 173 172 166 164 168 162 164 179 139 95 103 52 39 85 127 144 144 149 155 164 164 153 153 151 155 151 128 91 71 103 138 166 343 2 1
200 201 197 184 188 182 178 171 172 181 176 175 175 175 176 168 152 154 166 192 17 34 130 144 148 155 159 170 171 165 166 162 151 154 154 155 153 165 146 158 211 318 329
187 191 191 187 189 183 181 177 177 187 184 183 189 190 189 182 185 187 188 189 194 216 208 161 159 162 167 167 160 160 170 170 166 174 180 170 170 156 145 141 158 163 326
183 191 195 194 193 190 186 181 187 193 188 193 201 196 191 189 196 195 189 194 202 207 194 171 170 169 162 159 151 152 172 160 162 174 167 164 173 162 158 154 148 128 16
184 195 196 192 192 190 190 188 192 196 197 200 202 196 196 196 201 198 190 197 202 196 179 173 170 169 161 155 142 141 155 150 162 163 158 158 173 161 157 150 155 150 157
185 187 193 194 194 194 191 182 193 201 204 196 195 198 202 204 202 189 197 202 206 192 176 177 172 165 156 150 142 141 152 144 155 156 143 147 157 144 140 146 140 143 155
189 189 184 177 166 162 166 178 187 195 204 200 198 193 197 195 190 197 204 201 198 189 191 188 179 175 174 166 160 168 159 156 154 151 149 156 153 145 140 131 129 130 134
176 174 165 144 143 151 158 174 188 195 205 194 192 195 190 176 191 209 209 197 197 196 195 184 180 182 183 177 179 186 178 175 176 177 162 174 163 153 154 150 149 153 149
166 148 143 152 162 167 167 174 183 200 188 158 171 182 186 184 200 216 206 195 196 194 190 183 186 188 187 186 192 190 188 189 191 188 185 188 171 177 172 163 155 152 139
186 174 177 184 179 176 176 176 187 192 168 154 166 185 202 202 202 194 188 193 191 191 193 193 193 188 185 189 190 182 182 187 196 199 195 194 190 189 176 171 165 150 132
208 205 206 203 195 193 196 196 202 197 184 175 190 216 215 198 183 176 181 188 186 193 191 183 186 180 181 192 182 180 183 183 190 200 204 205 202 199 187 179 171 159 151
227 219 208 203 207 210 211 208 209 203 179 191 218 219 194 183 188 187 178 174 178 173 177 184 181 185 198 192 187 176 178 180 186 200 212 220 214 207 204 195 183 175 170
222 217 216 216 215 211 207 210 211 192 180 200 221 212 196 193 199 185 160 177 184 178 189 198 191 199 208 201 195 187 172 179 192 201 204 220 219 201 188 195 189 196 198
227 222 219 223 224 212 204 199 188 178 184 199 216 214 198 200 185 170 183 190 174 182 198 206 203 203 212 202 195 185 170 177 192 202 202 201 211 199 177 167 177 201 218
224 222 219 219 212 212 203 182 190 192 195 213 217 215 201 192 181 185 196 191 173 190 206 199 194 201 219 208 195 173 159 177 202 210 207 202 207 213 185 167 178 206 244
226 221 215 202 207 213 188 183 199 201 216 224 221 211 197 191 196 201 198 190 186 196 192 200 199 201 214 213 200 180 168 183 204 215 218 215 211 213 198 183 182 204 226
244 224 199 211 226 209 180 196 209 219 227 218 203 201 200 200 202 195 185 179 181 173 180 200 217 217 223 219 205 188 181 189 193 205 219 226 219 214 207 200 201 210 195
261 233 214 238 244 206 190 203 222 228 213 197 198 201 201 205 200 183 181 174 172 173 192 204 249 250 242 225 216 204 200 190 187 208 216 221 218 212 209 208 213 204 176
240 224 207 239 262 226 203 216 237 218 195 193 205 209 202 200 186 182 181 177 178 184 203 207 233 251 253 244 227 213 210 206 202 212 214 216 211 207 210 212 205 187 169
237 220 201 222 248 242 222 222 227 206 189 195 203 200 198 204 195 190 187 188 192 199 207 216 228 241 239 238 229 221 216 211 211 212 212 211 204 195 204 211 202 188 186
253 230 221 233 247 247 241 229 214 194 200 203 202 201 202 203 200 199 205 205 207 202 205 215 217 216 236 239 224 211 208 203 199 171 150 162 175 189 201 208 205 196 191
255 254 249 248 252 246 247 242 216 196 198 208 210 208 201 200 197 198 227 248 231 228 223 222 221 231 238 246 220 218 217 206 186 164 188 204 205 207 209 209 212 211 209
Height
1538 1539 1541 1542 1543 1544 1545 1546 1547 1548 1549 1549 1550 1551 1551 1552 1552 1553 1553 1553 1553 1553 1554 1554 1554 1554 1554 1554 1554 1555 1555 1555 1555 1555 1555 1555 1555 1555 1555 1555 1554 1554 1553
1536 1538 1539 1541 1542 1544 1545 1546 1547 1548 1548 1549 1550 1551 1552 1552 1552 1553 1553 1553 1553 1554 1554 1554 1554 1554 1554 1554 1555 1555 1555 1555 1555 1556 1555 1556 1557 1556 1556 1556 1555 1555 1554
1534 1536 1538 1539 1541 1542 1544 1545 1546 1547 1548 1549 1550 1551 1551 1551 1552 1552 1552 1553 1553 1553 1554 1554 1554 1554 1555 1555 1555 1555 1555 1555 1556 1556 1556 1556 1556 1557 1557 1556 1556 1556 1555
1532 1534 1536 1537 1539 1541 1543 1544 1545 1547 1547 1548 1549 1550 1550 1550 1551 1551 1552 1552 1553 1553 1553 1554 1554 1554 1554 1555 1555 1555 1555 1555 1555 1556 1556 1557 1556 1556 1556 1557 1556 1556 1555
1529 1531 1533 1535 1537 1539 1541 1543 1544 1545 1546 1547 1548 1549 1549 1550 1550 1551 1551 1552 1552 1553 1553 1553 1554 1554 1554 1554 1554 1555 1555 1555 1555 1555 1555 1555 1556 1556 1556 1556 1556 1556 1556
1526 1529 1532 1534 1536 1538 1539 1541 1543 1544 1545 1546 1547 1548 1548 1549 1550 1550 1550 1551 1551 1552 1552 1552 1553 1553 1553 1554 1554 1554 1554 1554 1555 1555 1555 1555 1555 1555 1555 1555 1555 1555 1556
1524 1526 1529 1531 1533 1535 1537 1539 1541 1542 1543 1545 1546 1547 1547 1548 1549 1549 1550 1550 1550 1551 1551 1552 1552 1552 1553 1553 1553 1553 1553 1554 1553 1553 1554 1554 1554 1554 1555 1555 1554 1555 1555
1522 1524 1526 1529 1531 1533 1536 1537 1539 1540 1542 1543 1544 1545 1546 1547 1548 1548 1549 1549 1550 1550 1550 1551 1551 1552 1552 1552 1552 1552 1552 1552 1552 1552 1553 1553 1553 1553 1554 1554 1554 1554 1554
1520 1522 1525 1527 1529 1531 1534 1535 1537 1539 1540 1541 1542 1543 1544 1545 1546 1547 1547 1548 1548 1549 1549 1549 1550 1550 1550 1550 1551 1551 1551 1551 1551 1551 1551 1551 1552 1552 1552 1553 1553 1554 1553
1519 1521 1523 1525 1527 1530 1532 1534 1535 1537 1538 1539 1540 1541 1542 1543 1544 1545 1546 1546 1547 1547 1547 1548 1548 1549 1549 1549 1549 1550 1550 1550 1550 1550 1550 1550 1550 1551 1551 1552 1552 1552 1553
1518 1520 1522 1524 1526 1528 1530 1532 1533 1535 1536 1537 1538 1539 1540 1541 1542 1543 1543 1544 1544 1545 1545 1546 1546 1547 1547 1547 1547 1548 1548 1548 1549 1549 1549 1549 1549 1550 1550 1550 1551 1551 1551
1518 1520 1521 1523 1524 1526 1528 1530 1531 1533 1534 1535 1536 1537 1538 1539 1539 1540 1541 1541 1542 1542 1543 1544 1544 1545 1545 1545 1546 1546 1547 1547 1547 1548 1548 1548 1548 1548 1548 1549 1549 1549 1550
1518 1519 1520 1521 1523 1525 1526 1528 1529 1530 1532 1533 1533 1535 1535 1536 1536 1537 1538 1538 1539 1540 1541 1541 1542 1542 1543 1543 1544 1544 1545 1545 1546 1546 1546 1546 1547 1547 1547 1547 1548 1548 1548
1517 1518 1519 1520 1522 1523 1524 1526 1527 1528 1529 1530 1531 1531 1532 1533 1533 1534 1535 1535 1536 1537 1538 1538 1539 1540 1540 1541 1542 1542 1543 1543 1544 1544 1544 1545 1545 1545 1546 1546 1546 1546 1546
1516 1517 1518 1519 1520 1522 1523 1524 1525 1526 1527 1528 1528 1529 1529 1530 1530 1531 1531 1532 1533 1533 1534 1535 1536 1537 1538 1538 1539 1540 1541 1541 1542 1542 1542 1543 1543 1543 1544 1544 1544 1545 1545
1515 1516 1517 1518 1519 1520 1520 1521 1522 1523 1524 1525 1525 1526 1526 1527 1527 1528 1528 1529 1529 1530 1531 1532 1533 1534 1535 1535 1536 1537 1538 1538 1539 1539 1540 1540 1541 1541 1542 1542 1542 1543 1543
1513 1514 1515 1516 1517 1517 1518 1519 1520 1521 1521 1522 1523 1523 1523 1523 1524 1524 1525 1525 1526 1527 1528 1529 1530 1530 1531 1532 1533 1534 1535 1536 1536 1537 1537 1537 1538 1538 1539 1540 1540 1540 1541
1510 1511 1512 1513 1514 1515 1516 1517 1517 1518 1518 1519 1519 1520 1520 1520 1521 1521 1521 1522 1522 1523 1524 1525 1526 1527 1528 1529 1530 1531 1532 1532 1533 1534 1534 1534 1535 1536 1536 1537 1537 1537 1538
1508 1509 1509 1510 1511 1512 1513 1513 1514 1515 1515 1515 1516 1516 1517 1517 1517 1517 1518 1518 1519 1520 1520 1522 1523 1524 1525 1526 1527 1528 1528 1529 1530 1530 1531 1531 1532 1532 1533 1534 1534 1534 1535
1506 1506 1507 1507 1508 1508 1509 1510 1511 1511 1511 1512 1513 1513 1513 1514 1514 1514 1515 1515 1516 1517 1517 1518 1520 1521 1522 1523 1524 1524 1525 1525 1526 1526 1527 1528 1528 1529 1530 1530 1531 1531 1532
1503 1504 1504 1504 1505 1505 1506 1506 1507 1507 1508 1509 1510 1510 1510 1510 1511 1511 1512 1512 1513 1513 1514 1515 1516 1517 1518 1520 1520 1521 1522 1522 1523 1523 1523 1524 1525 1525 1526 1526 1527 1527 1528
1500 1501 1501 1501 1501 1502 1502 1502 1502 1503 1505 1505 1506 1506 1506 1507 1507 1507 1508 1509 1509 1510 1511 1511 1512 1513 1515 1516 1517 1518 1518 1519 1520 1520 1520 1520 1521 1521 1522 1522 1523 1524 1524
1497 1497 1498 1497 1498 1499 1499 1498 1499 1500 1501 1501 1501 1502 1503 1503 1503 1504 1504 1505 1506 1506 1507 1508 1508 1509 1510 1511 1513 1514 1515 1515 1516 1516 1517 1517 1517 1518 1518 1518 1519 1519 1519
1494 1494 1494 1494 1494 1494 1495 1495 1495 1496 1496 1496 1497 1497 1498 1499 1499 1500 1501 1501 1502 1502 1503 1503 1504 1505 1506 1507 1508 1509 1510 1511 1511 1512 1513 1513 1513 1514 1514 1514 1514 1514 1515
1491 1491 1490 1490 1490 1490 1491 1491 1491 1492 1492 1492 1492 1493 1494 1494 1495 1496 1496 1497 1498 1499 1499 1499 1500 1500 1501 1502 1503 1504 1505 1505 1506 1507 1508 1508 1508 1508 1509 1509 1510 1510 1510
1487 1487 1486 1486 1486 1486 1486 1486 1487 1487 1488 1488 1488 1488 1489 1490 1491 1492 1492 1493 1494 1495 1495 1496 1496 1496 1497 1498 1499 1500 1500 1501 1502 1502 1502 1503 1503 1503 1504 1504 1505 1505 1505